Date,TemperatureHighF,TemperatureAvgF,TemperatureLowF,DewpointHighF,DewpointAvgF,DewpointLowF,HumidityHigh,HumidityAvg,HumidityLow,PressureMaxIn,PressureMinIn,WindSpeedMaxMPH,WindSpeedAvgMPH,GustSpeedMaxMPH,PrecipitationSumIn
2013-1-1,29,14,2,16,6,-4,83,73,56,30.48,30.19,13,3,0,0.00
2013-1-2,26,12,2,12,4,-4,79,71,53,30.56,30.37,7,2,0,0.00
2013-1-3,29,11,-1,9,1,-7,78,66,41,30.70,30.45,6,2,0,0.00
2013-1-4,26,11,-1,11,2,-7,77,67,50,30.67,30.42,8,2,0,0.00
2013-1-5,30,12,-2,10,2,-8,78,66,42,30.75,30.49,6,2,0,0.00
2013-1-6,42,22,2,15,6,-5,77,56,26,30.68,30.04,6,2,0,0.00
2013-1-7,40,26,11,16,11,6,79,56,28,30.16,29.95,11,2,0,0.00
2013-1-8,37,19,4,16,9,-1,79,67,42,30.42,30.07,6,2,0,0.00
2013-1-9,47,26,8,18,12,3,81,61,26,30.63,30.16,8,2,0,0.00
2013-1-10,42,29,15,23,16,9,78,60,36,30.16,29.56,7,2,0,0.00
2013-1-11,39,21,0,29,9,-8,92,62,31,30.14,29.39,24,9,0,0.00
2013-1-12,23,6,-6,8,-5,-14,74,61,36,30.34,30.09,11,2,0,0.00
2013-1-13,26,12,-5,8,1,-13,75,62,38,30.31,30.09,7,2,0,0.00
2013-1-14,22,13,-5,12,4,-12,82,68,47,30.40,30.07,12,2,0,0.01
2013-1-15,25,4,-11,2,-8,-19,71,58,35,30.72,30.40,7,2,0,0.00
2013-1-16,28,11,-1,6,-1,-9,72,59,37,30.80,30.58,7,1,0,0.00
2013-1-17,38,18,2,15,6,-4,78,62,37,30.83,30.52,5,1,0,0.00
2013-1-18,39,21,5,19,11,0,82,68,44,30.66,30.38,7,2,0,0.00
2013-1-19,39,20,7,19,11,2,82,69,43,30.63,30.41,5,2,0,0.00
2013-1-20,39,20,6,20,11,1,82,70,45,30.60,30.32,7,2,0,0.00
2013-1-21,40,23,8,21,13,3,82,68,41,30.56,30.34,8,2,0,0.00
2013-1-22,44,24,11,20,14,6,82,68,37,30.57,30.35,6,2,0,0.00
2013-1-23,48,28,11,23,16,6,82,64,32,30.60,30.29,6,2,0,0.00
2013-1-24,50,36,25,31,22,18,82,61,29,30.36,30.15,7,1,0,0.00
2013-1-25,48,40,35,38,34,30,88,80,69,30.23,30.05,5,1,0,0.01
2013-1-26,42,40,37,40,37,33,95,91,83,30.04,29.72,8,2,0,0.63
2013-1-27,52,42,37,44,38,35,96,87,52,29.82,29.70,7,1,0,0.17
2013-1-28,41,35,29,38,32,25,94,91,84,29.74,29.60,9,2,0,0.31
2013-1-29,30,26,21,25,15,9,86,64,45,30.07,29.70,22,8,0,0.00
2013-1-30,38,29,20,23,16,10,71,59,42,30.23,30.07,19,7,0,0.00
2013-1-31,47,33,21,29,24,17,88,69,36,30.30,30.12,15,2,0,0.00
2013-2-1,47,33,21,28,23,18,87,69,43,30.31,30.14,17,4,0,0.01
2013-2-2,45,33,23,26,23,18,87,70,41,30.42,30.22,6,1,0,0.00
2013-2-3,42,34,25,31,26,22,90,76,55,30.28,29.97,9,2,0,0.00
2013-2-4,44,31,22,30,26,20,91,82,58,30.15,29.98,4,1,0,0.00
2013-2-5,50,34,22,30,25,19,90,72,37,30.17,29.92,5,1,0,0.01
2013-2-6,51,36,25,29,25,21,89,67,33,29.97,29.80,11,2,0,0.00
2013-2-7,49,33,20,29,22,17,88,67,30,30.18,29.90,5,1,0,0.01
2013-2-8,59,42,26,23,16,4,75,39,12,29.99,29.47,21,6,0,0.00
2013-2-9,35,28,24,28,23,15,91,79,64,29.78,29.51,20,3,0,0.02
2013-2-10,32,27,21,26,24,19,91,86,73,29.96,29.78,13,2,0,0.08
2013-2-11,34,25,13,24,17,10,91,74,44,30.13,29.91,8,1,0,0.02
2013-2-12,36,21,6,18,10,0,79,65,38,30.33,30.10,16,3,0,0.00
2013-2-13,41,25,11,22,15,6,81,66,45,30.32,30.11,11,2,0,0.00
2013-2-14,47,31,15,22,16,10,83,59,31,30.24,30.05,15,3,0,0.00
2013-2-15,46,33,18,20,13,8,78,49,21,30.35,30.15,22,4,0,0.00
2013-2-16,53,32,16,18,15,10,77,53,22,30.49,30.10,14,3,0,0.00
2013-2-17,55,36,21,19,14,8,74,47,15,30.10,29.64,13,2,0,0.00
2013-2-18,44,33,21,19,7,0,66,36,17,30.12,29.62,20,8,0,0.00
2013-2-19,54,34,17,19,9,2,72,42,13,30.09,29.55,13,3,0,0.00
2013-2-20,37,31,19,33,24,15,91,78,50,29.64,29.46,11,2,0,0.06
2013-2-21,43,29,16,27,21,12,90,72,42,29.83,29.62,18,4,0,0.01
2013-2-22,36,28,22,27,19,11,90,70,46,30.05,29.81,17,5,0,0.03
2013-2-23,42,28,14,28,13,8,89,57,30,30.12,29.68,16,4,0,0.00
2013-2-24,37,26,17,20,10,3,79,52,25,29.97,29.72,13,4,0,0.00
2013-2-25,44,28,11,14,10,5,78,51,23,30.17,29.89,23,5,0,0.00
2013-2-26,37,27,14,17,8,-3,80,50,18,30.11,29.84,20,6,0,0.00
2013-2-27,42,27,10,10,5,-1,73,44,20,30.35,30.11,11,2,0,0.00
2013-2-28,48,31,11,10,7,1,73,41,14,30.43,30.19,21,5,0,0.00
2013-3-1,55,41,27,21,16,9,65,37,25,30.31,30.11,22,8,0,0.00
2013-3-2,62,40,21,25,20,15,81,51,21,30.38,30.09,13,3,0,0.00
2013-3-3,58,41,26,26,22,18,78,52,22,30.08,29.69,11,2,0,0.00
2013-3-4,56,43,31,31,22,11,74,46,26,29.96,29.60,18,5,0,0.00
2013-3-5,57,38,18,18,11,-1,75,39,10,30.27,29.98,6,2,0,0.00
2013-3-6,64,46,28,21,16,12,60,35,15,30.05,29.74,6,2,0,0.00
2013-3-7,66,45,27,23,16,8,71,38,13,29.99,29.68,7,3,0,0.00
2013-3-8,53,38,31,36,27,16,92,67,43,29.83,29.55,18,3,0,0.23
2013-3-9,39,33,28,33,26,21,93,77,59,29.92,29.54,16,4,0,0.01
2013-3-10,51,36,23,24,19,14,88,55,25,30.10,29.93,12,3,0,0.00
2013-3-11,56,39,20,26,21,16,87,54,25,30.15,29.93,17,6,0,0.00
2013-3-12,62,46,26,27,24,19,78,44,22,30.10,29.92,13,3,0,0.00
2013-3-13,66,46,25,28,24,19,84,48,19,30.24,30.06,13,3,0,0.00
2013-3-14,71,49,25,26,22,19,78,42,15,30.25,29.98,12,3,0,0.00
2013-3-15,73,52,31,27,21,16,68,37,12,30.04,29.71,13,3,0,0.00
2013-3-16,67,49,36,30,25,22,64,42,20,29.77,29.58,23,3,0,0.00
2013-3-17,62,47,32,31,19,4,76,41,10,29.65,29.51,28,7,0,0.00
2013-3-18,58,44,28,15,8,3,50,26,12,29.91,29.62,20,5,0,0.00
2013-3-19,58,44,30,17,12,7,48,29,17,30.03,29.84,16,4,0,0.00
2013-3-20,59,44,23,27,16,8,56,35,20,30.13,29.61,8,2,0,0.00
2013-3-21,62,48,35,32,18,0,71,36,10,29.63,29.44,33,8,0,0.00
2013-3-22,61,42,18,9,0,-17,53,22,5,29.79,29.46,24,6,0,0.00
2013-3-23,40,31,16,6,-6,-15,39,21,10,30.16,29.52,18,8,0,0.00
2013-3-24,44,28,9,3,-2,-6,55,31,16,30.23,29.99,18,6,0,0.00
2013-3-25,52,33,11,8,2,-4,54,30,15,30.22,30.03,15,3,0,0.00
2013-3-26,61,42,23,14,10,5,51,30,15,30.07,29.75,10,3,0,0.00
2013-3-27,66,49,27,18,12,6,56,27,11,29.97,29.74,13,2,0,0.00
2013-3-28,68,51,33,17,13,9,48,24,11,29.91,29.79,13,3,0,0.00
2013-3-29,70,51,34,23,18,11,45,29,14,30.02,29.84,14,3,0,0.00
2013-3-30,70,51,29,26,20,15,63,34,12,30.04,29.78,21,5,0,0.00
2013-3-31,70,52,32,26,20,17,61,33,13,29.94,29.71,15,3,0,0.00
2013-4-1,70,54,36,30,18,5,64,29,9,29.83,29.57,16,4,0,0.00
2013-4-2,59,45,28,34,20,8,74,41,18,29.84,29.60,16,3,0,0.01
2013-4-3,67,46,24,30,21,10,80,45,14,30.04,29.82,22,5,0,0.00
2013-4-4,69,50,28,19,14,10,49,26,10,30.08,29.82,11,3,0,0.00
2013-4-5,72,57,41,24,18,11,41,23,13,29.86,29.55,15,4,0,0.00
2013-4-6,69,56,34,27,20,16,59,27,15,29.77,29.53,21,4,0,0.00
2013-4-7,69,54,34,25,17,11,53,27,12,29.70,29.46,20,5,0,0.00
2013-4-8,68,49,36,34,21,10,89,37,13,29.49,29.02,39,8,0,0.02
2013-4-9,41,37,33,38,34,25,94,87,71,29.75,29.19,12,4,0,0.49
2013-4-10,50,36,23,25,19,10,75,54,30,29.94,29.73,19,7,0,0.00
2013-4-11,56,45,30,34,25,12,72,48,36,29.88,29.65,17,6,0,0.00
2013-4-12,65,47,29,31,23,5,83,46,11,29.80,29.64,13,3,0,0.00
2013-4-13,69,53,28,26,20,12,73,35,12,29.75,29.25,19,7,0,0.00
2013-4-14,65,57,49,32,22,-100,48,27,20,29.40,29.22,19,-2,0,0.00
2013-4-15,70,58,43,30,23,15,60,30,12,29.43,29.24,23,7,0,0.00
2013-4-16,72,59,49,28,19,5,38,23,8,29.41,29.21,29,10,0,0.00
2013-4-17,51,42,30,27,18,10,59,39,24,29.89,29.38,23,7,0,0.00
2013-4-18,45,36,28,10,4,-1,45,27,15,30.16,29.88,24,11,0,0.00
2013-4-19,57,40,16,10,5,0,50,26,12,30.31,29.81,17,5,0,0.00
2013-4-20,61,48,29,26,17,10,53,31,16,29.86,29.69,20,5,0,0.00
2013-4-21,66,48,27,26,17,4,71,36,9,30.02,29.78,24,5,0,0.00
2013-4-22,75,56,30,20,16,11,54,25,10,29.82,29.38,20,6,0,0.00
2013-4-23,58,50,35,23,9,-10,40,20,9,29.94,29.41,28,9,0,0.00
2013-4-24,66,46,23,8,0,-8,30,16,6,30.05,29.82,16,3,0,0.00
2013-4-25,72,54,35,28,16,6,41,23,13,29.87,29.59,25,4,0,0.00
2013-4-26,70,55,36,34,20,2,68,33,7,29.97,29.66,18,4,0,0.00
2013-4-27,74,56,32,25,16,8,54,25,9,30.04,29.77,15,4,0,0.00
2013-4-28,77,57,32,19,13,7,40,20,7,29.90,29.60,20,4,0,0.00
2013-4-29,80,60,36,23,17,12,47,21,8,29.70,29.40,17,5,0,0.00
2013-4-30,82,64,40,23,14,7,40,18,7,29.52,29.30,25,7,0,0.00
2013-5-1,66,58,44,30,8,-14,41,16,5,30.00,29.35,23,8,0,0.00
2013-5-2,63,48,29,10,3,-4,37,17,7,30.29,29.99,16,4,0,0.00
2013-5-3,69,48,26,11,4,-4,41,19,6,30.18,29.71,10,2,0,0.00
2013-5-4,75,57,30,13,8,-1,34,16,7,29.80,29.48,17,3,0,0.00
2013-5-5,73,63,54,28,17,7,28,17,12,29.70,29.51,14,4,0,0.00
2013-5-6,60,54,47,46,39,26,89,60,28,29.83,29.57,10,3,0,0.15
2013-5-7,70,56,38,44,31,16,92,49,14,29.85,29.58,16,3,0,0.01
2013-5-8,59,52,40,41,32,24,84,50,26,29.86,29.59,14,5,0,0.02
2013-5-9,63,48,34,39,33,28,80,58,31,29.91,29.82,14,3,0,0.00
2013-5-10,71,53,36,37,33,28,83,51,21,30.00,29.83,15,3,0,0.00
2013-5-11,74,57,37,38,31,23,79,44,16,30.15,29.95,11,3,0,0.00
2013-5-12,78,62,40,35,30,27,67,35,16,30.08,29.75,16,4,0,0.00
2013-5-13,84,66,43,33,28,21,58,28,10,29.93,29.67,9,2,0,0.00
2013-5-14,85,69,49,36,32,22,54,28,10,29.72,29.48,20,5,0,0.00
2013-5-15,85,70,50,40,27,7,59,25,7,29.64,29.43,19,6,0,0.00
2013-5-16,83,65,41,26,18,11,38,18,8,29.66,29.44,14,3,0,0.00
2013-5-17,82,64,40,24,16,3,43,19,5,29.68,29.49,18,4,0,0.00
2013-5-18,74,64,55,38,25,18,52,24,13,29.63,29.49,18,4,0,0.01
2013-5-19,70,60,48,38,27,17,54,31,14,29.66,29.53,20,7,0,0.00
2013-5-20,67,56,47,39,31,24,63,40,21,29.75,29.57,14,4,0,0.00
2013-5-21,74,56,34,36,28,18,81,41,12,29.88,29.56,15,4,0,0.00
2013-5-22,83,64,41,29,22,16,51,25,9,29.64,29.36,13,3,0,0.00
2013-5-23,87,67,43,30,19,9,43,20,6,29.59,29.41,18,4,0,0.00
2013-5-24,84,65,40,26,18,11,42,19,7,29.73,29.51,13,3,0,0.00
2013-5-25,85,66,39,23,16,4,38,17,8,29.76,29.48,11,2,0,0.00
2013-5-26,83,64,43,26,15,7,37,17,6,29.74,29.51,15,4,0,0.00
2013-5-27,80,62,40,20,15,9,39,18,8,29.69,29.44,11,2,0,0.00
2013-5-28,79,62,41,37,19,10,39,21,8,29.55,29.25,16,4,0,0.00
2013-5-29,72,61,48,44,30,14,70,36,12,29.48,29.33,27,7,0,0.01
2013-5-30,78,63,43,32,22,14,51,25,9,29.59,29.41,23,6,0,0.00
2013-5-31,78,61,39,27,16,5,48,21,6,29.73,29.55,22,7,0,0.00
2013-6-1,83,62,33,16,12,6,36,16,6,29.86,29.64,16,4,0,0.00
2013-6-2,88,68,41,30,22,11,35,19,8,29.77,29.38,13,4,0,0.00
2013-6-3,86,69,47,35,27,20,49,23,9,29.56,29.41,14,4,0,0.00
2013-6-4,89,70,46,31,24,20,43,21,8,29.61,29.42,14,2,0,0.00
2013-6-5,88,71,47,29,23,17,42,19,9,29.59,29.43,15,3,0,0.00
2013-6-6,89,71,46,29,21,16,37,18,7,29.63,29.43,22,4,0,0.00
2013-6-7,90,70,50,39,28,19,43,23,8,29.62,29.38,15,4,0,0.00
2013-6-8,94,74,48,34,26,17,44,20,6,29.54,29.36,20,6,0,0.00
2013-6-9,96,77,51,35,26,19,45,17,8,29.58,29.42,20,4,0,0.00
2013-6-10,97,78,51,38,25,17,34,16,7,29.58,29.36,13,4,0,0.00
2013-6-11,92,74,49,33,21,15,37,17,6,29.65,29.46,21,5,0,0.00
2013-6-12,93,74,48,34,21,15,32,16,6,29.72,29.55,13,2,0,0.00
2013-6-13,93,77,52,34,26,19,32,17,9,29.68,29.43,23,3,0,0.00
2013-6-14,90,78,60,43,28,15,44,19,8,29.58,29.38,16,4,0,0.00
2013-6-15,89,69,50,48,30,14,71,26,11,29.80,29.52,16,4,0,0.06
2013-6-16,90,72,53,47,37,30,74,36,12,29.81,29.54,13,3,0,0.00
2013-6-17,91,74,54,36,27,11,44,21,6,29.70,29.44,12,3,0,0.00
2013-6-18,92,72,48,47,21,6,39,18,4,29.66,29.39,15,4,0,0.00
2013-6-19,93,73,46,27,11,1,27,12,4,29.55,29.32,16,4,0,0.00
2013-6-20,91,72,44,24,14,5,28,13,5,29.59,29.37,13,3,0,0.00
2013-6-21,89,70,46,26,19,11,35,16,7,29.64,29.41,13,3,0,0.00
2013-6-22,89,71,48,27,18,11,32,16,6,29.63,29.41,16,4,0,0.00
2013-6-23,90,71,46,31,16,9,28,15,5,29.59,29.32,16,3,0,0.00
2013-6-24,86,70,50,32,17,11,35,16,6,29.60,29.43,17,4,0,0.00
2013-6-25,88,72,46,30,23,12,30,17,11,29.70,29.53,18,4,0,0.00
2013-6-26,94,76,50,36,29,24,40,20,10,29.73,29.55,17,4,0,0.00
2013-6-27,100,78,54,36,30,25,40,20,8,29.74,29.55,9,2,0,0.00
2013-6-28,102,81,60,49,36,28,34,21,9,29.73,29.56,22,4,0,0.02
2013-6-29,98,78,58,48,42,37,53,30,12,29.75,29.53,19,4,0,0.00
2013-6-30,96,79,60,49,43,35,60,31,13,29.70,29.42,16,3,0,0.00
2013-7-1,96,78,57,48,43,26,62,32,8,29.74,29.46,16,4,0,0.00
2013-7-2,89,76,60,63,46,41,59,38,19,29.75,29.44,12,3,0,0.04
2013-7-3,94,77,63,52,45,26,65,36,9,29.67,29.32,17,6,0,0.00
2013-7-4,92,78,60,47,41,38,53,30,15,29.56,29.37,14,2,0,0.00
2013-7-5,94,80,65,53,44,37,48,31,15,29.51,29.30,17,4,0,0.00
2013-7-6,94,75,60,57,49,40,70,43,15,29.62,29.38,16,3,0,0.00
2013-7-7,94,80,62,55,47,40,69,36,15,29.64,29.41,11,2,0,0.00
2013-7-8,96,81,64,52,44,33,59,31,12,29.67,29.52,16,4,0,0.00
2013-7-9,97,81,62,52,41,-100,62,29,11,29.74,29.41,11,-19,0,0.00
2013-7-10,99,80,64,51,45,37,50,31,12,29.65,29.50,20,4,0,0.00
2013-7-11,94,74,62,62,51,45,81,49,19,29.74,29.45,20,3,0,0.07
2013-7-12,90,75,61,62,55,44,84,56,22,29.65,29.51,12,3,0,0.02
2013-7-13,91,75,60,59,52,43,90,51,19,29.73,29.57,15,2,0,0.01
2013-7-14,95,77,67,63,53,46,78,47,19,29.67,29.46,14,3,0,0.33
2013-7-15,85,70,62,62,59,51,89,72,31,29.70,29.55,14,3,0,0.05
2013-7-16,83,71,60,59,54,49,92,59,31,29.81,29.64,8,1,0,0.03
2013-7-17,86,74,62,55,48,42,78,44,22,29.84,29.65,10,2,0,0.00
2013-7-18,89,77,61,52,48,44,69,38,22,29.79,29.54,8,2,0,0.00
2013-7-19,91,77,64,57,50,44,66,41,21,29.67,29.48,19,4,0,0.00
2013-7-20,91,76,63,56,51,40,73,46,17,29.65,29.43,18,2,0,0.00
2013-7-21,92,75,60,53,48,41,70,42,20,29.59,29.48,28,3,0,0.00
2013-7-22,94,76,59,50,46,37,63,38,16,29.67,29.47,28,4,0,0.00
2013-7-23,94,78,64,51,46,40,55,35,18,29.65,29.47,24,3,0,0.00
2013-7-24,95,79,66,54,45,37,59,33,14,29.68,29.47,18,3,0,0.00
2013-7-25,92,78,62,54,49,39,72,42,19,29.73,29.49,16,3,0,0.00
2013-7-26,92,78,66,54,48,40,58,37,16,29.75,29.57,20,4,0,0.00
2013-7-27,89,76,59,54,50,43,73,43,21,29.83,29.50,18,3,0,0.00
2013-7-28,85,72,64,62,54,45,86,55,27,29.63,29.47,15,4,0,0.12
2013-7-29,87,73,59,55,46,39,75,43,21,29.73,29.58,19,4,0,0.00
2013-7-30,91,75,57,51,41,31,69,35,12,29.84,29.68,17,3,0,0.01
2013-7-31,95,79,56,42,36,32,50,25,12,29.85,29.58,11,2,0,0.00
2013-8-1,86,74,67,57,48,34,68,42,24,29.75,29.57,11,3,0,0.00
2013-8-2,90,74,63,57,51,42,72,47,24,29.74,29.53,22,4,0,0.00
2013-8-3,89,74,60,60,53,46,91,53,22,29.74,29.58,14,4,0,0.05
2013-8-4,93,75,59,59,49,42,73,45,18,29.74,29.58,18,3,0,0.03
2013-8-5,90,73,56,58,51,42,92,54,19,29.81,29.58,14,3,0,0.00
2013-8-6,89,70,60,59,52,43,93,59,21,29.74,29.54,18,3,0,0.32
2013-8-7,74,64,58,61,58,54,94,81,53,29.77,29.61,11,1,0,0.42
2013-8-8,82,65,56,60,53,40,95,71,24,29.79,29.66,15,2,0,0.01
2013-8-9,87,70,52,50,44,35,84,47,17,29.82,29.64,12,3,0,0.00
2013-8-10,85,65,56,55,50,43,82,60,25,29.98,29.70,26,6,0,0.30
2013-8-11,84,66,51,51,46,36,86,54,18,29.99,29.69,13,2,0,0.00
2013-8-12,86,72,60,52,46,37,75,42,20,29.79,29.64,12,2,0,0.00
2013-8-13,89,73,56,50,40,26,67,36,11,29.83,29.62,12,3,0,0.00
2013-8-14,90,70,56,45,38,31,55,34,14,29.79,29.61,9,2,0,0.00
2013-8-15,93,74,56,44,33,23,44,26,9,29.77,29.59,20,3,0,0.00
2013-8-16,94,76,55,41,36,29,53,27,10,29.79,29.61,13,2,0,0.00
2013-8-17,92,73,58,54,43,36,56,36,15,29.79,29.62,23,4,0,0.00
2013-8-18,90,75,59,51,47,40,73,41,18,29.80,29.58,6,1,0,0.00
2013-8-19,94,77,61,55,47,41,63,38,16,29.75,29.55,14,3,0,0.00
2013-8-20,91,76,60,55,49,42,78,43,19,29.69,29.54,22,3,0,0.00
2013-8-21,94,76,61,59,46,42,66,39,17,29.71,29.54,19,4,0,0.03
2013-8-22,87,75,57,58,52,43,93,49,22,29.86,29.60,10,2,0,0.01
2013-8-23,91,75,59,53,44,29,76,40,11,29.69,29.48,16,3,0,0.00
2013-8-24,85,70,63,59,52,44,82,56,24,29.75,29.57,12,2,0,0.12
2013-8-25,76,66,62,64,60,56,93,81,53,29.90,29.72,13,3,0,0.47
2013-8-26,86,72,61,62,58,48,93,66,27,29.92,29.67,9,1,0,0.00
2013-8-27,88,73,58,60,55,45,90,58,23,29.81,29.60,12,2,0,0.00
2013-8-28,90,74,58,59,51,39,87,51,17,29.74,29.61,9,1,0,0.00
2013-8-29,90,74,60,62,52,48,82,50,24,29.77,29.64,11,3,0,0.33
2013-8-30,91,76,62,61,54,46,85,52,21,29.81,29.57,5,1,0,0.00
2013-8-31,90,76,60,57,52,45,78,47,21,29.69,29.53,14,2,0,0.00
2013-9-1,91,76,59,59,50,45,72,45,21,29.70,29.53,10,2,0,0.02
2013-9-2,90,75,59,61,51,40,85,49,19,29.76,29.57,9,2,0,0.00
2013-9-3,88,75,64,56,51,47,63,46,25,29.75,29.61,13,2,0,0.00
2013-9-4,93,77,60,55,50,43,75,43,18,29.80,29.61,9,1,0,0.00
2013-9-5,91,78,62,49,40,30,56,29,12,29.78,29.63,10,2,0,0.00
2013-9-6,93,74,55,47,36,34,53,29,13,29.81,29.58,10,2,0,0.00
2013-9-7,92,76,57,45,41,34,55,31,15,29.71,29.52,11,3,0,0.00
2013-9-8,87,72,59,52,48,45,66,45,24,29.69,29.47,16,2,0,0.00
2013-9-9,83,65,56,58,53,45,91,69,27,29.68,29.45,18,2,0,0.84
2013-9-10,66,62,59,60,58,56,92,86,76,29.76,29.53,12,3,0,0.32
2013-9-11,79,67,57,60,54,44,93,67,30,29.81,29.65,5,1,0,0.00
2013-9-12,75,64,56,60,55,49,91,74,49,29.84,29.65,12,3,0,0.42
2013-9-13,75,65,54,60,55,53,94,73,52,29.75,29.57,9,2,0,0.00
2013-9-14,75,64,56,57,54,51,89,70,47,29.69,29.52,16,3,0,0.05
2013-9-15,78,65,55,53,51,48,88,64,35,29.78,29.64,11,2,0,0.00
2013-9-16,80,67,54,53,51,45,86,60,29,29.84,29.65,12,2,0,0.00
2013-9-17,82,70,57,54,51,44,83,55,27,29.75,29.47,9,3,0,0.00
2013-9-18,78,66,56,59,54,50,90,68,39,29.63,29.46,12,3,0,0.10
2013-9-19,80,65,51,52,44,28,88,55,15,29.70,29.55,16,2,0,0.00
2013-9-20,82,64,45,45,40,34,83,49,18,29.82,29.65,6,1,0,0.00
2013-9-21,80,67,52,52,45,39,77,49,26,29.75,29.47,10,2,0,0.00
2013-9-22,75,60,48,58,50,38,89,72,35,29.55,29.24,22,3,0,0.23
2013-9-23,68,55,40,44,38,32,92,58,27,29.87,29.49,17,4,0,0.01
2013-9-24,76,57,39,41,37,30,87,55,19,29.98,29.67,6,1,0,0.00
2013-9-25,82,63,42,41,34,25,80,42,14,29.69,29.34,13,4,0,0.00
2013-9-26,77,65,44,32,27,21,61,25,15,29.52,29.32,17,5,0,0.00
2013-9-27,66,52,37,45,34,17,90,56,20,29.97,29.32,11,3,0,0.05
2013-9-28,65,46,28,31,26,18,88,53,19,30.14,29.97,6,1,0,0.00
2013-9-29,72,52,31,32,26,18,83,45,13,30.15,29.85,11,2,0,0.00
2013-9-30,77,57,37,32,27,20,72,38,12,29.93,29.69,10,2,0,0.00
2013-10-1,78,56,37,35,28,20,74,40,12,29.87,29.69,10,2,0,0.00
2013-10-2,76,56,35,32,26,19,70,39,12,29.90,29.65,11,2,0,0.00
2013-10-3,75,57,38,33,28,23,68,38,17,29.79,29.39,17,4,0,0.00
2013-10-4,54,46,35,30,20,12,62,39,19,30.06,29.45,21,8,0,0.00
2013-10-5,60,44,24,22,19,16,74,41,20,30.24,30.02,13,2,0,0.00
2013-10-6,66,45,27,26,21,17,71,43,18,30.26,30.07,6,2,0,0.00
2013-10-7,75,52,31,29,24,21,71,39,13,30.17,29.79,9,2,0,0.00
2013-10-8,75,57,39,30,26,23,56,35,16,29.90,29.55,11,2,0,0.00
2013-10-9,72,56,38,38,26,18,65,36,13,29.73,29.44,11,3,0,0.00
2013-10-10,60,48,36,45,37,29,92,71,33,29.86,29.37,25,3,0,0.50
2013-10-11,56,43,32,39,36,30,94,76,48,29.97,29.82,7,1,0,0.00
2013-10-12,62,47,34,39,33,28,92,64,27,30.06,29.82,7,3,0,0.01
2013-10-13,73,56,42,39,34,28,78,47,22,29.91,29.58,13,3,0,0.00
2013-10-14,58,48,36,35,29,23,83,51,26,29.97,29.63,15,4,0,0.00
2013-10-15,60,45,29,33,26,19,84,52,22,30.04,29.78,15,4,0,0.00
2013-10-16,53,43,28,33,25,17,89,54,26,30.06,29.80,20,5,0,0.00
2013-10-17,59,42,23,27,19,7,84,48,13,30.11,29.85,13,3,0,0.00
2013-10-18,59,44,26,22,15,6,76,37,14,30.01,29.85,16,6,0,0.00
2013-10-19,61,43,24,19,16,11,64,36,18,30.17,29.89,14,3,0,0.00
2013-10-20,65,46,26,24,19,14,74,40,15,29.98,29.73,18,3,0,0.00
2013-10-21,64,47,28,24,19,11,69,37,14,30.04,29.77,11,2,0,0.00
2013-10-22,66,45,27,24,20,17,66,41,16,30.19,30.00,5,1,0,0.00
2013-10-23,71,49,30,28,22,18,71,41,14,30.15,29.87,5,2,0,0.00
2013-10-24,73,55,34,38,24,20,64,35,15,30.02,29.84,18,3,0,0.00
2013-10-25,66,53,42,42,39,37,84,60,35,30.01,29.82,15,3,0,0.00
2013-10-26,65,50,37,41,37,32,90,64,29,30.16,29.96,7,2,0,0.00
2013-10-27,66,50,34,36,32,29,83,55,25,30.05,29.62,6,2,0,0.00
2013-10-28,68,53,38,35,25,17,73,40,15,29.77,29.52,12,3,0,0.00
2013-10-29,61,48,34,36,28,20,92,49,21,29.79,29.53,15,4,0,0.10
2013-10-30,50,37,31,40,32,26,93,83,41,29.91,29.75,11,3,0,0.02
2013-10-31,48,38,28,35,29,25,93,71,42,30.07,29.85,15,5,0,0.01
2013-11-1,58,44,29,30,25,22,80,52,26,30.15,29.96,19,5,0,0.00
2013-11-2,62,42,26,28,24,19,85,55,19,30.25,29.81,6,2,0,0.00
2013-11-3,63,46,33,29,23,15,68,44,16,29.81,29.55,16,3,0,0.00
2013-11-4,57,42,22,35,25,17,80,55,27,29.93,29.66,10,2,0,0.00
2013-11-5,46,38,26,35,16,5,80,44,19,30.21,29.65,21,7,0,0.01
2013-11-6,48,31,14,13,9,5,75,45,19,30.49,30.22,13,2,0,0.00
2013-11-7,58,37,20,18,15,11,71,46,19,30.53,30.13,6,2,0,0.00
2013-11-8,62,43,27,21,17,11,69,40,15,30.22,29.88,9,2,0,0.00
2013-11-9,64,42,24,20,16,12,65,39,16,30.22,29.99,11,2,0,0.00
2013-11-10,65,43,26,21,17,14,63,40,16,30.32,30.06,6,2,0,0.00
2013-11-11,63,42,24,21,18,15,69,42,19,30.35,30.10,9,2,0,0.00
2013-11-12,67,44,26,21,18,15,64,40,15,30.48,30.21,5,2,0,0.00
2013-11-13,58,42,28,30,25,19,73,53,30,30.38,29.97,6,2,0,0.00
2013-11-14,58,39,28,29,23,17,78,55,26,30.09,29.81,13,3,0,0.00
2013-11-15,56,42,28,40,28,18,88,61,31,29.84,29.41,14,3,0,0.03
2013-11-16,51,42,30,40,32,28,94,70,42,29.64,29.47,21,4,0,0.01
2013-11-17,54,41,29,34,28,23,87,62,35,30.09,29.59,14,2,0,0.00
2013-11-18,56,38,24,29,25,20,86,63,29,30.27,30.00,6,2,0,0.00
2013-11-19,59,42,26,31,26,21,84,58,31,30.07,29.74,6,2,0,0.00
2013-11-20,54,39,25,39,30,21,93,73,40,29.88,29.70,9,1,0,0.04
2013-11-21,50,43,38,43,39,36,95,87,68,29.95,29.70,7,2,0,0.12
2013-11-22,42,40,37,39,37,33,92,90,83,30.14,29.88,10,3,0,0.43
2013-11-23,44,35,32,36,26,-100,94,81,66,30.19,30.01,10,-52,0,0.13
2013-11-24,33,28,27,31,21,-100,94,86,80,30.18,30.07,6,-40,0,0.01
2013-11-25,36,32,28,30,29,26,92,86,78,30.28,29.99,8,2,0,0.14
2013-11-26,39,34,29,30,28,25,88,79,67,30.37,30.27,6,2,0,0.02
2013-11-27,46,34,25,31,27,22,90,78,51,30.35,30.10,5,1,0,0.00
2013-11-28,50,35,24,33,27,22,91,75,44,30.23,30.03,4,1,0,0.01
2013-11-29,50,34,23,34,27,20,92,79,46,30.35,30.16,7,1,0,0.01
2013-11-30,36,30,26,33,28,24,95,92,82,30.41,30.21,5,1,0,0.00
2013-12-1,32,31,30,30,28,26,94,90,84,30.38,30.27,8,2,0,0.00
2013-12-2,39,32,27,29,27,24,89,82,67,30.27,29.87,5,1,0,0.00
2013-12-3,53,39,25,30,25,20,90,61,28,29.88,29.33,11,3,0,0.01
2013-12-4,47,34,19,33,23,13,91,66,42,29.92,29.27,24,7,0,0.04
2013-12-5,31,21,13,19,12,7,84,70,45,30.00,29.88,13,2,0,0.01
2013-12-6,31,22,16,17,11,3,85,65,31,30.22,29.98,5,1,0,0.00
2013-12-7,36,28,17,25,12,5,86,52,37,30.13,29.65,10,3,0,0.00
2013-12-8,28,21,6,25,8,-3,91,60,31,30.17,29.63,22,6,0,0.00
2013-12-9,24,11,-1,4,-3,-8,72,56,28,30.68,30.19,16,5,0,0.00
2013-12-10,27,12,0,3,-1,-7,73,59,31,30.74,30.50,6,1,0,0.00
2013-12-11,36,18,3,11,6,-3,78,62,34,30.72,30.50,6,2,0,0.00
2013-12-12,45,23,9,17,11,3,82,65,24,30.68,30.16,10,1,0,0.00
2013-12-13,40,28,19,19,16,13,84,63,39,30.16,29.96,22,4,0,0.00
2013-12-14,40,24,11,19,13,7,83,66,35,30.55,30.11,7,2,0,0.00
2013-12-15,41,24,11,19,14,7,84,68,40,30.58,30.40,6,1,0,0.00
2013-12-16,42,25,13,21,16,9,84,70,42,30.60,30.37,11,2,0,0.00
2013-12-17,46,27,13,24,17,9,85,70,38,30.66,30.34,5,2,0,0.00
2013-12-18,46,30,17,24,20,14,87,68,40,30.36,29.82,6,2,0,0.00
2013-12-19,55,39,27,25,21,17,77,52,24,29.80,29.49,10,2,0,0.00
2013-12-20,46,35,22,31,26,19,89,69,49,29.66,29.54,9,2,0,0.00
2013-12-21,37,28,16,27,20,13,91,73,51,29.78,29.54,20,6,0,0.00
2013-12-22,40,29,14,17,13,7,76,53,33,30.34,29.79,19,4,0,0.00
2013-12-23,41,27,12,19,14,7,81,61,40,30.60,30.23,9,2,0,0.00
2013-12-24,45,29,15,21,16,11,84,61,39,30.50,30.19,16,3,0,0.00
2013-12-25,43,25,11,18,11,5,80,59,31,30.57,30.29,6,2,0,0.00
2013-12-26,42,24,10,16,12,6,81,62,35,30.61,30.33,7,2,0,0.00
2013-12-27,47,27,13,19,13,8,82,61,27,30.57,30.25,6,2,0,0.00
2013-12-28,44,28,14,20,15,9,82,62,36,30.28,29.91,11,2,0,0.00
2013-12-29,44,26,13,20,14,7,85,63,35,30.27,29.92,11,2,0,0.00
2013-12-30,44,24,9,18,9,5,82,58,24,30.52,30.24,6,1,0,0.00
2013-12-31,47,29,14,18,12,7,77,54,27,30.47,30.08,11,2,0,0.00
2014-1-1,52,33,14,19,12,8,80,48,17,30.29,30.03,19,6,0,0.00
2014-1-2,46,27,12,16,10,5,72,53,26,30.43,30.21,6,2,0,0.00